Regional Weather Roundup
Issued by NWS New Orleans/Baton Rouge, LA

Home | Current Version | Previous Version | Graphics & Text | Print | Product List | Glossary On
Versions: 1 2 3 4 5 6 7 8 9 10 11 12 13 14 15 16 17 18 19 20 21 22 23 24 25 26 27 28 29 30 31 32 33 34 35 36 37 38 39 40 41 42 43 44 45 46 47 48 49 50
564
ASUS44 KLIX 260010
RWRLIX
NEW ORLEANS REGIONAL WEATHER ROUNDUP
NATIONAL WEATHER SERVICE NEW ORLEANS LA
600 PM CST SUN JAN 25 2015

NOTE: "FAIR" INDICATES FEW OR NO CLOUDS BELOW 12,000 FEET WITH NO
      SIGNIFICANT WEATHER AND/OR OBSTRUCTIONS TO VISIBILITY.
      SKY/WX - SKY CONDITION AND SIGNIFICANT WEATHER.
      TMP - AIR TEMPERATURE.     DP    - DEWPOINT TEMPERATURE.
      RH  - RELATIVE HUMIDITY.   PRES  - PRESSURE.
      HI  - HEAT INDEX.          WCI   - WIND CHILL INDEX.

*  THESE STATIONS ARE NOT NWS OR FAA STATIONS AND ARE NOT UNDER
   NWS QUALITY CONTROL.

LAZ038-040-048-061>063-065>067-069-260100-
SOUTHEAST LOUISIANA

CITY           SKY/WX    TMP DP  RH WIND       PRES   REMARKS
N.O. AUDUBON     N/A     58  45  62 MISG        N/A
6HR MIN TEMP:  56; 6HR MAX TEMP:  67;

N.O. INTL ARPT PTCLDY    59  39  47 SW18      29.86F
6HR MIN TEMP:  59; 6HR MAX TEMP:  68;

N.O. LAKEFRONT CLEAR     62  40  44 SW16      29.86S
6HR MIN TEMP:  62; 6HR MAX TEMP:  67;

N.O. DOWNTOWN*   N/A     61  39  44 SW12G21   29.87F
6HR MIN TEMP:  61; 6HR MAX TEMP:  66;

SLIDELL        CLEAR     59  40  49 VRB5      29.86R
6HR MIN TEMP:  59; 6HR MAX TEMP:  65;

BATON ROUGE    CLEAR     60  42  51 SW10      29.88R
6HR MIN TEMP:  60; 6HR MAX TEMP:  69;

BOOTHVILLE     PTCLDY    61  52  72 W22G30    29.92F
6HR MIN TEMP:  60; 6HR MAX TEMP:  63;

BELLE CHASSE   CLEAR     60  40  47 SW16G23   29.88R
6HR MIN TEMP:  59; 6HR MAX TEMP:  67;

BOGALUSA*        N/A     61  38  41 W6        29.86R
6HR MIN TEMP:  61; 6HR MAX TEMP:  69;

GALLIANO*      PTCLDY    60  47  64 MISG      29.91F
6HR MIN TEMP:  60; 6HR MAX TEMP:  67;

NEW ROADS*       N/A     60  45  58 W7        29.89R
6HR MIN TEMP:  60; 6HR MAX TEMP:  68;

GONZALES*        N/A     60  41  48 W8        29.90R
6HR MIN TEMP:  60; 6HR MAX TEMP:  67;

HAMMOND*       CLEAR     61  37  41 W9        29.88R
HOUMA*         CLEAR     57  46  67 W12G17    29.91F
PORT FOURCHON* CLEAR     59  52  77 W14G23    29.96F

$$

MSZ070-080>082-260100-
SOUTHERN MISSISSIPPI

CITY           SKY/WX    TMP DP  RH WIND       PRES   REMARKS
MCCOMB         CLEAR     61  41  47 W7        29.85S
6HR MIN TEMP:  61; 6HR MAX TEMP:  67;

GULFPORT       CLEAR     59  39  47 SW6       29.84F
6HR MIN TEMP:  58; 6HR MAX TEMP:  64;

BILOXI         CLEAR     57  44  60 W12G18    29.85S
6HR MIN TEMP:  57; 6HR MAX TEMP:  62;

PASCAGOULA     CLEAR     57  43  59 SW5       29.85F
6HR MIN TEMP:  57; 6HR MAX TEMP:  62;

STENNIS ARPT*  CLEAR     59  34  38 W9G16     29.86S

$$

COASTAL OBSERVATIONS
LAKE AND NEARSHORE STATIONS

STATION/POSITION TIME  TEMP    WIND        PRES    WAVE
                       AIR SEA DIR/SP/G            HT/PER
                 (UTC) (F)     (DEG/KT/KT) (MB)    (FT/S)
PASCAGOULA       0000   59     230/ 18/ 22 1010.2
WAVELAND YACHT   0000   60     260/  6/ 11 1009.8
GRAND ISLE       0000   60 59  260/ 17/ 25 1013.5
SOUTHWEST PASS   0000   60 48  270/ 27/ 30 1014.2
NEW CANAL        0000   61 53  220/ 10/ 14 1011.4
SHELL BEACH      0000   59 54  240/ 15/ 22 1011.4

OFFSHORE STATIONS

STATION/POSITION TIME  TEMP    WIND        PRES    WAVE
                       AIR SEA DIR/SP/G            HT/PER
                 (UTC) (F)     (DEG/KT/KT) (MB)    (FT/S)

$$




USA.gov is the U.S. government's official web portal to all federal, state and local government web resources and services.